• In Czech Republic
  • List of Countries
  • For 7 days
  • Water Temperature
  • Satellite Maps
  • Weather Map
  • Weather Widgets
  • user-avatar
    Login

    Hourly Weather Salta

    Today, 18 July, Wednesday

    Time Temperature Precipitation Wind Pressure Humidity
    00:00 +15°C° 0 mm 2 mps 650 mmHg 56%
    01:00 +15°C° 0 mm 2 mps 650 mmHg 55%
    02:00 +15°C° 0 mm 2 mps 650 mmHg 55%
    03:00 +15°C° 0 mm 2 mps 649 mmHg 54%
    04:00 +15°C° 0 mm 2 mps 649 mmHg 54%
    05:00 +15°C° 0 mm 2 mps 649 mmHg 53%
    06:00 +15°C° 0 mm 2 mps 650 mmHg 52%
    07:00 +16°C° 0 mm 2 mps 650 mmHg 52%
    08:00 +17°C° 0 mm 2 mps 650 mmHg 48%
    09:00 +19°C° 0 mm 2 mps 650 mmHg 45%
    10:00 +21°C° 0 mm 3 mps 650 mmHg 42%
    11:00 +24°C° 0 mm 3 mps 651 mmHg 38%
    12:00 +25°C° 0 mm 3 mps 650 mmHg 35%
    13:00 +26°C° 0 mm 3 mps 650 mmHg 32%
    14:00 +27°C° 0 mm 4 mps 650 mmHg 29%
    15:00 +26°C° 0 mm 4 mps 649 mmHg 34%
    16:00 +25°C° 0 mm 3 mps 649 mmHg 38%
    17:00 +24°C° 0 mm 3 mps 648 mmHg 43%
    18:00 +21°C° 0 mm 3 mps 648 mmHg 51%
    19:00 +19°C° 0 mm 2 mps 648 mmHg 59%
    20:00 +18°C° 0 mm 1 mps 648 mmHg 68%
    21:00 +18°C° 0 mm 1 mps 648 mmHg 68%
    22:00 +17°C° 0 mm 2 mps 648 mmHg 68%
    23:00 +16°C° 0 mm 2 mps 648 mmHg 68%

    Tomorrow, 19 July, Thursday

    Time Temperature Precipitation Wind Pressure Humidity
    00:00 +16°C° 0 mm 2 mps 648 mmHg 67%
    01:00 +16°C° 0 mm 2 mps 648 mmHg 67%
    02:00 +16°C° 0 mm 2 mps 648 mmHg 66%
    03:00 +16°C° 0 mm 2 mps 647 mmHg 66%
    04:00 +16°C° 0 mm 2 mps 647 mmHg 67%
    05:00 +15°C° 0 mm 2 mps 646 mmHg 67%
    06:00 +16°C° 0 mm 2 mps 647 mmHg 66%
    07:00 +16°C° 0 mm 2 mps 647 mmHg 66%
    08:00 +16°C° 0 mm 3 mps 648 mmHg 65%
    09:00 +18°C° 0 mm 4 mps 648 mmHg 61%
    10:00 +19°C° 0 mm 5 mps 648 mmHg 57%
    11:00 +20°C° 0 mm 6 mps 648 mmHg 53%
    12:00 +21°C° 0 mm 6 mps 648 mmHg 51%
    13:00 +21°C° 0 mm 6 mps 648 mmHg 50%
    14:00 +21°C° 0 mm 6 mps 647 mmHg 48%
    15:00 +19°C° 0 mm 6 mps 647 mmHg 50%
    16:00 +17°C° 0 mm 5 mps 648 mmHg 53%
    17:00 +16°C° 0 mm 5 mps 648 mmHg 55%
    18:00 +14°C° 0 mm 4 mps 648 mmHg 58%
    19:00 +13°C° 0 mm 4 mps 648 mmHg 61%
    20:00 +12°C° 0 mm 4 mps 648 mmHg 63%
    21:00 +12°C° 0 mm 4 mps 648 mmHg 63%
    22:00 +11°C° 0 mm 4 mps 648 mmHg 63%
    23:00 +11°C° 0 mm 4 mps 649 mmHg 62%

    Day after tomorrow, 20 July, Friday

    Time Temperature Precipitation Wind Pressure Humidity
    00:00 +10°C° 0 mm 3 mps 649 mmHg 63%
    01:00 +10°C° 0 mm 3 mps 649 mmHg 64%
    02:00 +9°C° 0 mm 3 mps 649 mmHg 65%
    03:00 +9°C° 0 mm 3 mps 649 mmHg 63%
    04:00 +8°C° 0 mm 3 mps 649 mmHg 62%
    05:00 +8°C° 0 mm 2 mps 649 mmHg 61%
    06:00 +8°C° 0 mm 2 mps 650 mmHg 58%
    07:00 +8°C° 0 mm 2 mps 651 mmHg 56%
    08:00 +8°C° 0 mm 2 mps 652 mmHg 53%
    09:00 +9°C° 0 mm 3 mps 653 mmHg 47%
    10:00 +11°C° 0 mm 3 mps 654 mmHg 41%
    11:00 +12°C° 0 mm 3 mps 654 mmHg 35%
    12:00 +13°C° 0 mm 3 mps 654 mmHg 33%
    13:00 +14°C° 0 mm 3 mps 654 mmHg 31%
    14:00 +16°C° 0 mm 3 mps 654 mmHg 29%
    15:00 +14°C° 0 mm 3 mps 653 mmHg 30%
    16:00 +14°C° 0 mm 2 mps 653 mmHg 32%
    17:00 +13°C° 0 mm 2 mps 653 mmHg 33%
    18:00 +12°C° 0 mm 1 mps 653 mmHg 38%
    19:00 +10°C° 0 mm 1 mps 653 mmHg 43%
    20:00 +8°C° 0 mm 1 mps 653 mmHg 48%
    21:00 +8°C° 0 mm 1 mps 654 mmHg 49%
    22:00 +8°C° 0 mm 1 mps 654 mmHg 49%
    23:00 +7°C° 0 mm 1 mps 654 mmHg 49%

    21 July, Saturday

    Time Temperature Precipitation Wind Pressure Humidity
    00:00 +7°C° 0 mm 1 mps 653 mmHg 50%
    01:00 +7°C° 0 mm 1 mps 653 mmHg 50%
    02:00 +7°C° 0 mm 1 mps 653 mmHg 50%
    03:00 +7°C° 0 mm 1 mps 652 mmHg 52%
    04:00 +7°C° 0 mm 1 mps 652 mmHg 54%
    05:00 +7°C° 0 mm 1 mps 651 mmHg 56%
    06:00 +7°C° 0 mm 1 mps 652 mmHg 54%
    07:00 +8°C° 0 mm 1 mps 652 mmHg 53%
    08:00 +9°C° 0 mm 1 mps 653 mmHg 52%
    09:00 +12°C° 0 mm 2 mps 653 mmHg 44%
    10:00 +14°C° 0 mm 2 mps 653 mmHg 36%
    11:00 +17°C° 0 mm 2 mps 654 mmHg 29%
    12:00 +18°C° 0 mm 3 mps 653 mmHg 28%
    13:00 +18°C° 0 mm 3 mps 652 mmHg 26%
    14:00 +19°C° 0 mm 3 mps 651 mmHg 25%
    15:00 +19°C° 0 mm 3 mps 651 mmHg 27%
    16:00 +18°C° 0 mm 3 mps 650 mmHg 29%
    17:00 +17°C° 0 mm 2 mps 649 mmHg 31%
    18:00 +15°C° 0 mm 2 mps 649 mmHg 37%
    19:00 +13°C° 0 mm 2 mps 649 mmHg 43%
    20:00 +10°C° 0 mm 2 mps 649 mmHg 48%
    21:00 +10°C° 0 mm 2 mps 648 mmHg 49%
    22:00 +10°C° 0 mm 2 mps 648 mmHg 49%
    23:00 +10°C° 0 mm 2 mps 648 mmHg 49%

    22 July, Sunday

    Time Temperature Precipitation Wind Pressure Humidity
    00:00 +10°C° 0 mm 2 mps 648 mmHg 49%
    01:00 +10°C° 0 mm 2 mps 647 mmHg 49%
    02:00 +10°C° 0 mm 2 mps 647 mmHg 49%
    03:00 +10°C° 0 mm 2 mps 646 mmHg 47%
    04:00 +10°C° 0 mm 2 mps 646 mmHg 44%
    05:00 +10°C° 0 mm 2 mps 646 mmHg 41%
    06:00 +12°C° 0 mm 2 mps 647 mmHg 37%
    07:00 +13°C° 0 mm 2 mps 647 mmHg 33%
    08:00 +14°C° 0 mm 2 mps 648 mmHg 29%
    09:00 +18°C° 0 mm 2 mps 649 mmHg 23%
    10:00 +21°C° 0 mm 2 mps 650 mmHg 18%
    11:00 +26°C° 0 mm 2 mps 651 mmHg 12%
    12:00 +27°C° 0 mm 2 mps 651 mmHg 11%
    13:00 +28°C° 0 mm 2 mps 651 mmHg 11%
    14:00 +29°C° 0 mm 3 mps 650 mmHg 11%
    15:00 +27°C° 0 mm 3 mps 650 mmHg 14%
    16:00 +26°C° 0 mm 3 mps 650 mmHg 18%
    17:00 +24°C° 0 mm 3 mps 650 mmHg 21%
    18:00 +20°C° 0 mm 2 mps 650 mmHg 27%
    19:00 +17°C° 0 mm 2 mps 650 mmHg 33%
    20:00 +15°C° 0 mm 1 mps 650 mmHg 39%
    21:00 +14°C° 0 mm 1 mps 650 mmHg 38%
    22:00 +14°C° 0 mm 2 mps 651 mmHg 38%
    23:00 +13°C° 0 mm 2 mps 651 mmHg 37%

    23 July, Monday

    Time Temperature Precipitation Wind Pressure Humidity
    00:00 +13°C° 0 mm 2 mps 651 mmHg 37%
    01:00 +13°C° 0 mm 2 mps 651 mmHg 37%
    02:00 +12°C° 0 mm 2 mps 651 mmHg 37%
    03:00 +12°C° 0 mm 2 mps 651 mmHg 39%
    04:00 +10°C° 0 mm 2 mps 651 mmHg 41%
    05:00 +9°C° 0 mm 2 mps 652 mmHg 44%
    06:00 +10°C° 0 mm 2 mps 652 mmHg 45%
    07:00 +10°C° 0 mm 2 mps 653 mmHg 46%
    08:00 +10°C° 0 mm 2 mps 654 mmHg 47%
    09:00 +12°C° 0 mm 2 mps 654 mmHg 43%
    10:00 +13°C° 0 mm 3 mps 655 mmHg 40%
    11:00 +16°C° 0 mm 3 mps 655 mmHg 36%
    12:00 +16°C° 0 mm 3 mps 655 mmHg 36%
    13:00 +17°C° 0 mm 4 mps 654 mmHg 35%
    14:00 +17°C° 0 mm 4 mps 654 mmHg 35%
    15:00 +15°C° 0 mm 4 mps 654 mmHg 38%
    16:00 +14°C° 0 mm 3 mps 653 mmHg 40%
    17:00 +13°C° 0 mm 3 mps 653 mmHg 43%
    18:00 +11°C° 0 mm 3 mps 654 mmHg 47%
    19:00 +9°C° 0 mm 2 mps 654 mmHg 51%
    20:00 +8°C° 0 mm 1 mps 655 mmHg 56%
    21:00 +8°C° 0 mm 1 mps 655 mmHg 57%
    22:00 +7°C° 0 mm 1 mps 655 mmHg 57%
    23:00 +7°C° 0 mm 1 mps 655 mmHg 58%
    Show more